Wind_Speed
34 34 34 32 31 32 33 34 34 32 29 30 32 32 32 33 32 30 31 33 32 31 30 30 29 29 27 27 27 27 27 27 26 26 25 25 23 20 16 14 14 15 15 15 16 18 19 19 19 19 19 19 18 17 16 16 16 16 16 16 16 16 15 12 12 16 19 18 18 20 21 21 22 24 23 23 23 23 22 22 22 22 23 25 26
33 33 33 32 33 34 33 33 34 32 29 29 30 30 31 32 33 31 30 32 33 32 30 30 30 29 28 27 28 28 27 27 27 26 26 26 24 22 19 16 15 15 15 16 16 16 17 19 19 19 20 21 20 18 16 15 15 14 15 16 16 16 17 16 13 14 19 19 17 20 24 24 25 26 27 25 25 26 26 27 27 26 27 27 28
33 33 34 34 34 34 32 31 32 31 30 29 29 29 29 29 32 33 30 28 30 32 31 30 30 30 29 28 28 28 27 27 27 26 26 27 25 23 22 22 21 19 18 19 19 17 18 19 20 19 19 20 21 20 17 16 16 16 16 17 18 16 17 19 17 15 17 20 18 17 18 21 25 27 28 28 28 28 29 30 31 31 31 31 32
32 33 35 35 33 32 32 31 31 31 31 29 29 29 27 26 29 32 30 26 26 30 32 31 31 30 30 29 29 29 28 27 27 27 27 27 26 25 24 24 25 24 23 22 20 19 20 21 20 18 17 19 21 20 19 19 19 19 19 20 21 19 18 19 20 18 17 20 22 21 20 24 28 29 29 29 30 30 32 33 33 33 34 34 35
32 33 34 33 31 31 31 31 30 31 31 30 29 29 27 25 27 30 30 27 25 28 31 32 31 31 31 30 30 30 29 29 28 28 27 27 27 26 25 26 26 26 26 25 23 22 22 22 21 18 18 19 20 19 19 19 19 19 20 20 21 21 20 20 22 21 19 20 24 26 26 28 30 31 30 29 29 31 32 35 36 35 36 36 36
32 32 33 32 31 31 32 31 31 32 32 30 29 29 27 25 26 28 29 28 26 26 29 31 32 32 32 31 31 31 30 30 30 29 28 27 27 27 26 27 27 27 27 26 24 24 24 24 22 20 20 22 21 19 18 17 18 19 20 22 22 21 20 20 21 21 20 21 23 24 24 24 25 29 31 29 28 28 29 33 35 36 37 37 37
32 32 33 32 31 31 32 32 32 32 32 31 29 28 28 27 26 27 29 28 27 26 27 29 32 33 33 32 32 32 31 31 31 31 30 28 28 28 27 26 26 27 27 26 24 23 23 24 23 23 24 25 24 22 19 18 18 19 21 23 23 20 18 17 17 18 18 19 20 21 21 21 22 25 30 31 30 29 30 31 33 36 37 36 38
32 33 33 32 31 32 33 32 32 31 31 31 30 28 28 28 28 28 28 28 28 28 26 27 30 32 32 33 32 32 32 32 32 32 32 31 30 29 28 27 25 25 26 25 24 23 23 22 21 23 25 27 26 24 22 21 19 18 20 22 22 21 18 15 15 17 17 18 19 19 19 19 20 22 25 26 26 28 31 30 31 36 37 37 39
33 33 32 32 31 32 33 31 31 31 31 33 33 31 29 29 29 28 29 30 29 28 27 25 26 28 29 30 31 30 30 31 32 33 32 32 31 29 27 27 26 24 24 23 23 24 24 22 21 22 24 26 27 26 25 24 22 19 18 18 19 20 18 16 16 17 17 17 17 18 18 18 19 20 20 21 23 28 30 26 26 33 36 39 41
33 33 33 32 32 34 36 33 31 32 34 35 36 34 31 29 29 29 30 31 30 28 27 26 24 25 27 28 29 28 29 32 33 34 33 32 31 28 26 26 26 25 24 23 23 24 24 22 22 23 26 27 28 27 26 26 26 25 23 20 19 18 17 18 18 19 19 18 17 17 18 20 20 19 19 21 24 26 25 20 21 28 32 35 37
33 34 32 32 35 39 39 35 34 36 36 36 37 37 34 29 28 30 31 31 31 29 28 27 26 26 25 26 26 27 30 33 35 35 35 33 31 28 26 25 25 25 24 24 24 23 22 21 22 24 27 29 29 28 28 27 27 27 27 26 25 23 22 21 21 21 21 21 22 20 19 22 23 21 19 19 20 22 20 14 16 24 27 25 24
34 33 30 32 38 40 36 34 35 37 37 37 37 38 37 31 29 30 31 31 31 30 29 28 30 29 26 25 26 27 29 33 35 35 35 35 33 30 26 22 21 23 24 24 24 22 21 21 20 21 24 27 27 26 27 28 28 27 27 28 28 28 28 28 27 25 23 23 25 25 22 23 24 20 16 17 20 20 17 12 16 26 28 24 23
33 32 30 32 36 36 34 34 34 35 37 39 37 37 36 32 30 30 30 31 31 30 29 29 30 29 27 26 27 27 27 31 35 36 35 34 34 32 29 24 21 22 22 23 23 22 22 21 20 20 23 25 26 26 26 27 28 28 28 28 29 30 31 31 31 31 30 29 29 30 29 28 28 23 18 21 24 19 14 15 21 28 28 27 32
31 31 30 32 35 36 35 34 34 34 37 38 36 34 33 32 31 29 28 29 29 29 30 29 28 28 28 28 28 27 27 30 33 35 35 35 34 33 31 27 24 23 23 23 23 23 23 22 22 22 22 22 24 25 26 27 28 27 26 25 27 29 30 32 32 32 35 35 35 38 38 38 40 34 23 20 24 23 22 24 27 30 31 32 38
29 29 29 31 33 35 34 34 33 33 35 35 34 32 31 31 32 29 27 27 27 30 31 29 27 28 29 29 28 27 29 31 33 34 34 34 33 33 33 31 28 26 25 26 26 25 24 23 23 24 22 20 22 24 25 26 25 24 22 21 23 24 25 28 30 32 33 35 37 41 42 43 44 40 28 20 20 25 32 34 31 32 36 37 38
26 27 28 30 32 33 33 33 33 33 33 33 32 31 31 32 33 31 28 26 25 27 29 28 27 28 29 29 28 27 29 31 34 35 34 33 32 32 32 33 32 29 27 27 27 27 26 25 24 24 23 22 24 26 27 26 24 22 22 23 23 24 24 25 28 31 31 31 34 37 40 41 40 38 35 28 23 27 36 40 36 32 33 32 31
26 28 30 31 31 32 33 33 32 32 32 31 31 31 32 32 33 31 28 25 24 25 26 26 26 27 28 28 28 29 30 31 33 34 34 32 32 32 32 33 32 31 30 29 28 27 28 28 26 24 23 23 26 28 28 27 25 24 24 24 24 25 26 25 26 29 31 33 35 37 38 38 37 35 34 32 30 30 33 37 37 33 29 25 24
27 28 30 31 31 32 33 32 32 32 31 30 30 30 30 30 30 29 29 27 26 25 25 25 25 26 27 28 29 29 29 30 33 34 34 32 32 32 33 33 32 31 30 29 29 29 29 30 29 26 25 26 27 29 28 26 26 27 26 25 25 27 27 25 24 27 32 34 35 33 31 31 32 33 32 30 28 27 28 31 33 31 26 23 24
29 30 31 31 30 32 33 32 32 31 30 29 29 29 29 28 28 27 27 27 26 25 24 24 24 25 26 27 30 31 28 27 30 33 33 33 32 32 33 32 30 29 28 27 27 27 29 31 31 31 30 30 30 30 28 27 27 28 27 25 26 27 27 24 23 27 33 34 30 27 26 27 30 33 34 31 26 24 25 27 26 23 22 24 26
30 31 31 29 30 31 31 31 31 30 29 30 30 29 28 27 26 25 25 25 25 24 23 23 23 24 24 25 27 29 28 26 28 32 33 33 33 33 33 32 29 27 27 26 24 24 24 26 29 32 33 32 31 30 29 28 28 27 25 24 26 27 25 23 25 30 35 35 31 29 31 31 30 30 30 26 20 19 22 23 22 21 23 25 27
29 29 28 27 28 29 29 29 31 31 31 32 31 28 27 26 25 24 25 25 24 24 23 23 23 23 23 24 24 26 26 26 28 30 32 32 32 32 34 33 30 27 25 25 24 22 20 21 25 30 31 29 28 27 28 28 27 27 25 25 27 29 27 28 32 32 31 33 34 34 35 35 32 26 21 17 15 15 17 18 19 20 22 25 27
33 31 29 26 25 27 26 27 30 30 29 29 27 25 24 25 24 24 24 24 23 23 23 22 22 22 22 22 23 23 25 27 28 29 31 32 32 33 34 35 33 29 24 23 23 22 20 22 26 29 28 27 26 24 23 23 24 25 26 25 26 28 29 31 33 31 30 32 34 31 29 30 29 23 16 13 13 12 12 13 14 16 19 24 26
34 30 29 27 25 25 26 28 30 29 26 27 28 26 25 24 24 23 23 23 22 22 22 22 21 21 20 20 21 22 25 28 30 31 32 32 33 34 34 35 35 32 27 23 23 23 22 23 26 27 26 25 24 22 20 19 20 21 21 20 21 24 26 29 32 31 31 32 30 24 21 22 21 18 14 12 12 13 15 15 15 16 18 22 24
32 29 28 27 25 25 26 28 31 28 26 27 28 26 24 23 23 23 23 23 22 21 22 23 23 22 21 20 21 21 23 26 29 32 33 33 32 33 33 33 34 34 31 28 25 22 21 20 23 24 23 22 21 19 17 16 17 17 16 16 18 20 21 26 31 30 27 24 21 17 16 16 16 14 13 13 15 18 19 18 15 14 15 18 20
31 29 27 26 27 26 25 26 29 28 26 26 27 26 24 23 23 23 23 23 23 22 22 23 23 23 21 20 20 20 21 22 24 28 31 32 32 32 32 32 32 32 34 33 28 24 22 22 22 22 20 18 16 15 14 14 14 14 15 15 18 18 17 21 27 25 18 14 13 13 12 13 13 12 13 14 15 16 15 15 14 14 14 16 18
31 29 26 25 26 25 23 24 26 27 27 25 25 27 26 23 22 22 22 23 24 24 23 23 23 22 20 19 19 19 18 19 20 23 27 30 30 31 31 31 31 31 33 34 31 28 26 25 23 20 17 15 13 13 13 13 13 14 14 14 15 17 17 19 23 19 13 11 12 11 10 10 11 13 14 15 14 13 13 14 16 16 15 16 18
29 29 27 26 25 24 23 22 22 23 25 24 23 24 24 23 22 22 22 22 22 23 24 23 21 20 19 19 19 18 17 17 18 19 22 26 29 30 30 30 31 32 33 35 34 31 27 24 21 18 15 14 13 12 12 12 13 13 14 14 15 16 18 20 20 16 12 13 12 10 9 11 13 14 16 16 15 13 12 13 14 16 17 17 19
24 23 23 24 26 25 23 22 21 20 20 21 21 21 21 22 22 22 23 24 22 22 22 22 20 20 20 19 18 17 16 16 18 19 22 25 28 30 30 31 32 32 32 33 34 32 26 19 15 14 13 12 12 12 11 12 12 12 12 13 13 14 15 18 17 13 12 12 11 10 11 12 13 14 15 15 12 11 11 12 13 15 16 16 16
17 15 14 15 18 21 21 19 19 18 17 19 22 23 22 22 22 21 22 25 26 23 21 20 21 21 20 19 18 16 15 17 21 25 26 27 27 28 28 29 29 29 29 30 30 29 24 18 15 15 14 13 13 13 13 14 16 15 15 14 11 10 11 12 12 10 8 8 8 8 8 9 9 10 11 12 11 10 11 12 13 14 15 15 16
13 12 10 9 10 14 14 13 14 15 14 16 22 24 23 22 23 21 20 24 29 28 25 23 23 22 20 21 22 22 21 22 25 26 25 25 25 25 25 25 25 25 26 27 26 23 20 18 18 18 17 16 16 14 15 17 18 17 16 15 12 11 11 11 11 9 6 5 4 4 4 5 6 7 8 10 11 11 11 12 12 13 14 14 15
10 9 8 7 8 9 9 8 10 12 11 14 19 22 19 18 20 22 21 21 25 28 30 30 28 26 24 23 25 27 27 26 26 24 22 21 21 21 22 23 23 23 24 24 22 18 17 17 17 17 17 16 15 15 16 17 18 16 14 13 11 11 12 12 11 9 7 5 4 3 2 3 4 6 7 9 11 11 11 11 11 12 12 12 14
8 7 8 7 7 8 7 7 8 9 10 11 14 16 14 12 13 16 19 20 22 24 28 30 30 30 29 27 26 27 26 25 25 24 22 20 18 19 21 23 23 23 22 21 19 16 15 16 16 16 15 14 14 16 16 16 16 14 13 13 12 11 11 11 11 9 7 5 4 2 1 1 2 4 5 7 8 8 9 9 9 10 10 10 12
7 6 7 7 7 7 6 6 7 8 8 8 10 12 12 11 10 10 12 16 18 21 24 27 28 29 29 28 27 26 24 23 23 23 23 20 18 19 21 22 21 20 19 19 18 16 15 14 14 15 14 14 16 17 17 16 14 13 12 12 12 12 11 11 11 9 7 6 5 3 1 1 1 2 3 4 5 6 7 7 8 9 9 10 11
7 6 6 6 5 5 5 5 6 7 7 7 8 10 11 10 10 10 10 11 13 15 18 21 24 25 26 26 25 24 23 22 22 22 21 19 18 19 20 19 17 17 18 19 19 18 17 15 15 16 18 18 19 20 20 17 14 13 13 13 13 13 12 11 10 9 8 7 5 3 2 1 1 0 1 1 2 3 5 6 6 8 9 9 11
5 6 7 6 4 3 3 4 5 6 6 7 7 9 10 10 11 11 11 11 11 11 12 15 19 21 23 23 23 23 23 22 21 20 19 18 18 19 20 19 18 17 17 18 19 20 19 19 19 20 22 22 22 21 20 18 15 14 14 14 13 13 12 11 10 9 8 6 5 4 4 3 1 1 1 1 2 3 4 5 6 7 7 8 8
4 5 5 4 3 2 2 3 4 5 6 6 6 7 9 10 10 11 11 10 8 8 10 13 14 15 17 19 20 20 20 20 19 19 18 18 19 20 21 22 20 18 17 18 20 21 22 22 23 23 22 21 21 21 21 20 18 17 15 14 13 12 12 11 11 9 7 6 5 6 5 3 2 2 2 2 3 4 4 5 5 5 6 6 6
6 5 4 3 2 1 0 1 3 4 5 5 5 7 8 9 9 9 8 7 7 7 9 11 11 10 12 14 16 17 17 16 16 17 17 18 20 21 22 23 22 22 23 22 22 23 23 23 23 23 21 20 20 20 21 21 20 17 16 15 14 13 13 12 10 9 7 7 6 6 5 4 4 3 3 3 5 5 5 5 5 5 6 7 5
7 6 5 4 2 1 1 1 1 3 4 5 5 6 7 8 8 7 6 7 7 7 8 9 8 9 11 13 14 16 17 16 17 20 21 21 20 19 20 21 22 22 24 25 25 26 25 23 22 21 19 19 20 19 19 19 18 16 14 15 16 15 14 12 10 9 9 8 7 6 5 5 4 3 3 4 4 4 4 5 5 5 6 6 6
7 7 7 5 3 2 2 2 2 2 4 5 5 5 6 7 7 7 7 8 8 7 7 8 7 7 10 14 16 19 19 18 18 17 15 15 17 20 23 23 23 23 25 27 28 27 25 22 20 19 17 17 18 19 19 18 16 14 14 14 15 14 12 10 9 9 9 7 7 6 5 4 5 5 4 4 4 4 4 4 5 5 6 6 6
7 6 7 7 5 3 3 3 3 3 3 4 4 4 5 5 5 6 7 7 8 7 8 8 7 7 10 15 18 18 16 15 15 14 11 10 13 18 23 25 26 26 27 28 27 25 23 20 18 16 14 12 12 16 19 17 14 13 14 13 12 11 10 9 9 9 8 8 7 6 5 5 4 4 4 4 4 3 3 3 4 4 4 5 6
7 5 6 7 5 4 3 3 3 3 4 4 3 3 3 4 4 5 7 8 9 9 8 8 8 9 11 15 17 18 17 18 20 20 19 18 18 20 23 24 26 27 27 26 25 23 21 20 18 16 14 13 13 16 17 15 13 13 13 12 11 10 9 9 9 9 8 7 6 5 5 5 4 3 3 4 3 2 2 2 3 3 3 4 5
7 5 5 5 5 4 3 3 3 3 4 4 3 3 3 4 4 6 8 10 10 10 10 11 13 13 13 15 18 22 23 23 24 24 25 24 23 22 21 21 22 24 24 24 22 22 21 19 18 16 15 15 14 14 13 12 11 12 12 10 9 8 8 8 8 8 7 6 5 4 4 3 3 3 3 3 3 2 2 2 2 3 3 4 4
7 5 4 4 4 5 4 3 3 3 4 4 5 5 5 6 7 8 9 10 10 11 13 16 18 20 19 19 23 26 27 26 26 26 26 25 24 22 21 21 21 22 21 20 18 18 18 18 17 15 14 13 12 11 10 9 9 10 10 9 8 7 6 6 6 6 5 4 4 4 3 2 1 1 2 2 2 2 2 2 2 3 3 3 3
4 3 3 3 4 4 4 3 3 6 7 8 8 8 8 9 10 10 11 12 13 13 15 18 24 27 25 22 25 30 31 30 30 29 27 25 24 24 24 24 23 22 22 21 18 16 16 16 17 16 15 14 13 12 11 10 9 9 7 6 6 6 5 4 4 4 4 3 3 3 2 1 0 0 1 1 2 2 2 2 2 2 2 3 3
2 2 2 2 1 1 2 4 7 10 12 12 12 11 11 11 11 11 13 16 17 16 16 18 22 25 24 22 23 26 29 30 30 29 28 27 26 25 25 25 23 21 22 21 19 17 18 18 18 17 17 15 14 13 11 11 10 9 7 6 6 6 6 5 5 5 5 3 2 2 2 2 1 1 1 1 1 2 2 2 2 2 2 3 3
3 5 6 7 6 6 8 12 14 15 15 15 15 15 15 15 14 15 17 19 20 19 19 20 20 20 21 23 24 25 26 27 29 29 29 27 25 25 25 24 23 22 21 20 20 20 20 19 18 17 16 15 14 13 11 10 9 8 7 6 5 5 5 5 4 4 4 4 3 3 3 3 3 3 3 3 2 2 2 2 2 2 2 3 3
5 6 7 8 8 8 11 14 17 18 20 21 21 22 21 20 18 17 19 21 22 22 23 26 26 24 24 25 26 26 27 27 28 30 30 28 27 26 25 23 23 23 22 21 20 20 20 19 18 17 16 15 14 13 11 10 9 7 6 5 3 3 3 3 3 3 4 4 4 4 4 5 5 4 4 3 3 3 3 2 2 2 2 3 3
6 8 9 9 9 8 9 12 16 19 21 24 26 27 26 25 24 22 20 20 22 23 25 26 26 26 26 26 25 25 26 26 27 28 29 28 28 27 26 25 25 24 23 22 21 20 19 19 18 17 16 16 15 13 12 11 10 8 7 5 3 2 1 1 2 3 4 4 5 5 5 6 6 5 5 4 4 4 4 3 3 2 2 3 3
7 10 12 12 11 9 9 11 14 17 20 23 26 26 26 26 27 26 25 24 24 25 26 26 25 26 28 29 28 27 28 28 26 25 25 27 29 29 28 27 26 25 24 23 22 21 20 19 18 17 17 16 15 14 13 12 11 10 9 7 5 3 1 1 2 2 3 3 3 4 5 6 6 6 5 5 5 5 5 5 4 4 4 4 4
10 13 15 16 14 12 11 12 14 17 20 23 25 25 26 26 26 26 28 30 29 27 25 25 26 27 27 27 28 29 30 29 26 23 23 25 29 30 29 28 28 27 26 25 23 22 21 20 18 17 16 15 14 14 13 12 11 10 9 8 6 5 3 1 1 1 2 2 1 2 3 4 4 5 5 5 5 5 6 5 5 5 5 6 5
14 16 18 20 20 19 18 18 18 19 22 24 25 25 25 25 24 24 28 31 31 27 25 25 26 27 27 25 25 26 28 28 28 25 22 23 27 29 30 29 28 28 27 25 24 22 21 20 19 18 16 15 15 14 13 12 11 10 9 7 6 5 4 4 3 3 3 3 2 2 3 4 4 4 4 4 5 5 6 6 6 5 5 7 7
Wind_Direction
195 197 198 198 200 202 203 206 209 209 208 211 214 217 218 220 222 222 225 229 231 233 235 237 240 242 243 242 242 244 246 246 245 246 247 248 248 246 243 242 242 243 245 245 248 254 259 260 263 266 268 269 270 270 269 271 273 270 267 266 259 254 252 243 250 273 279 280 282 283 286 290 294 296 297 298 299 300 297 293 290 286 283 282 282
195 195 195 196 199 202 203 205 208 208 208 210 213 214 216 220 222 222 223 228 231 232 235 237 239 242 242 243 244 245 246 247 246 245 246 247 247 245 244 242 240 240 242 244 246 250 255 258 262 265 267 269 269 268 265 265 265 265 265 266 261 257 257 253 249 265 278 281 282 283 286 289 291 293 295 296 297 298 297 294 293 291 289 287 287
194 193 194 197 199 200 201 203 205 206 206 208 211 213 215 217 220 223 223 225 229 232 234 235 238 241 242 243 245 245 246 248 247 246 247 248 246 245 246 248 248 245 244 247 250 251 254 259 261 261 262 267 269 267 263 262 263 264 264 265 265 261 260 261 256 257 272 281 280 279 281 285 287 290 293 294 294 294 293 293 293 292 290 289 288
192 193 195 198 198 198 199 201 202 203 205 208 210 211 212 213 217 222 222 220 225 230 233 234 237 240 240 241 243 245 246 246 246 247 248 249 249 248 248 251 253 252 251 252 253 253 256 261 262 258 257 263 268 268 264 264 265 267 267 268 269 267 263 265 263 259 265 276 280 280 280 283 287 289 290 292 293 293 292 292 291 289 288 287 286
191 193 195 197 197 197 199 200 201 203 205 208 210 210 209 209 213 218 219 218 220 226 232 233 234 236 237 238 241 243 245 245 245 247 247 249 251 250 250 253 255 256 257 256 256 256 259 261 261 259 257 261 265 264 263 264 265 267 269 268 270 270 267 267 267 264 260 265 275 280 282 285 288 290 290 290 292 293 293 293 292 290 289 287 283
190 191 193 195 196 198 199 200 201 203 205 206 208 208 207 207 210 214 217 217 217 221 227 231 232 234 236 237 239 242 244 245 245 247 246 247 250 251 251 253 256 257 257 258 258 259 262 263 261 260 260 263 264 263 262 263 264 266 269 271 271 269 267 266 267 265 260 261 269 276 279 281 284 288 290 290 289 288 288 290 290 290 289 288 286
187 188 191 193 195 197 198 199 201 203 203 204 205 205 206 207 210 213 215 216 217 218 222 226 231 234 236 237 238 241 243 244 245 246 246 245 248 250 250 251 253 255 257 257 256 256 259 262 261 261 263 266 267 266 265 264 263 265 268 272 272 268 264 262 261 260 257 259 265 270 274 277 277 281 286 288 286 283 282 282 283 286 288 288 288
184 187 189 191 194 195 196 198 200 201 201 203 204 204 205 208 209 212 214 215 217 219 219 221 227 232 234 235 237 239 241 242 243 244 245 245 246 247 248 248 248 250 254 255 254 254 255 256 255 257 262 267 268 268 267 265 263 262 266 269 269 265 262 257 256 256 254 256 261 265 270 273 272 275 280 281 278 276 278 277 278 285 289 289 289
183 185 187 191 193 193 194 196 198 199 201 204 205 204 205 208 210 211 215 217 218 219 219 219 222 226 229 231 234 234 236 238 240 241 242 243 243 243 244 245 245 245 248 251 253 254 255 253 250 252 257 264 269 272 271 268 264 260 259 262 264 262 259 256 255 255 254 255 257 261 265 265 263 264 265 264 267 275 280 278 277 285 289 290 290
183 186 189 191 192 194 196 196 197 200 203 207 209 208 207 208 209 211 216 219 219 219 219 218 218 221 224 227 228 230 232 236 239 241 241 240 241 240 240 242 244 244 245 247 249 252 253 252 252 255 260 265 270 273 274 273 270 266 263 260 258 257 257 258 259 257 258 260 259 257 260 260 257 254 255 261 270 276 279 275 276 286 289 289 291
183 188 190 191 195 199 200 200 201 204 206 209 211 212 211 209 210 213 216 219 220 219 219 218 219 221 222 223 224 226 231 237 240 242 243 242 240 238 238 240 242 243 244 245 247 249 249 250 253 257 262 267 271 273 275 275 274 272 270 267 263 259 257 259 261 263 264 268 267 259 253 256 258 253 254 265 273 274 275 275 280 285 285 285 290
186 189 190 192 197 200 199 200 204 206 208 209 211 213 213 210 210 213 216 219 220 220 219 220 223 224 223 222 223 225 230 238 242 243 244 244 242 239 237 236 237 239 240 241 244 246 246 248 249 251 258 265 268 270 274 276 277 276 275 273 270 266 262 259 259 261 261 266 270 266 256 256 261 258 256 270 277 278 279 278 279 282 282 279 279
187 188 189 191 194 196 196 197 201 203 206 209 210 212 212 211 211 213 216 219 220 220 221 222 224 225 222 222 225 226 230 237 243 245 245 245 244 241 237 235 236 238 239 239 241 242 243 245 246 247 254 262 265 266 269 274 278 280 279 276 273 271 269 266 263 262 261 260 264 266 262 262 268 270 270 276 281 282 283 281 282 282 279 277 277
185 187 188 190 192 194 195 197 199 202 206 208 208 208 209 210 212 214 215 217 217 218 221 222 223 224 223 225 228 229 231 237 242 246 246 245 244 242 239 237 237 240 241 240 241 241 242 243 245 249 252 256 261 264 266 269 273 275 275 274 274 274 273 271 269 267 264 261 260 265 268 271 275 275 274 280 284 283 282 282 282 282 280 280 281
183 185 186 188 191 193 195 196 198 201 204 205 206 206 208 210 212 212 213 214 215 218 221 222 222 224 226 228 230 232 235 238 241 245 246 245 244 242 241 239 239 241 243 242 243 243 243 243 246 249 250 249 254 259 263 265 266 267 267 265 268 271 269 270 272 271 270 267 266 269 274 277 278 277 275 279 281 281 284 283 281 284 286 285 285
181 183 185 188 190 192 194 196 198 200 202 203 204 205 207 210 212 212 213 215 216 219 222 222 222 225 227 228 230 234 238 240 241 243 245 245 242 240 240 239 240 241 242 243 244 245 246 245 245 248 248 247 251 257 263 263 260 260 264 263 265 267 265 268 274 276 276 276 276 278 281 283 283 282 281 277 268 272 283 284 282 283 284 284 285
183 184 187 190 191 193 195 196 198 200 200 201 203 205 208 211 213 213 212 214 217 219 221 222 223 225 227 227 228 232 237 240 242 243 244 243 239 237 237 238 238 239 241 243 244 245 247 247 246 247 248 248 251 258 263 262 257 257 261 263 266 268 268 271 274 275 277 281 282 282 283 286 289 289 286 280 269 266 271 275 277 279 277 279 282
186 186 189 191 192 193 195 196 197 198 199 200 203 206 208 211 212 212 213 215 219 221 222 223 224 226 227 227 228 232 236 239 243 244 244 242 238 236 237 237 237 238 240 243 244 246 248 250 249 247 247 250 254 259 261 259 255 255 258 261 266 269 271 274 273 274 281 285 285 284 285 289 294 295 295 291 283 272 261 261 269 272 267 267 271
187 189 191 192 192 193 195 197 198 198 199 201 204 206 208 211 212 212 214 216 220 222 223 223 224 226 227 229 232 235 236 239 243 245 244 241 239 237 236 235 235 236 238 241 243 245 247 251 252 251 251 254 257 258 259 255 253 254 256 261 267 269 271 274 274 278 284 286 285 287 290 293 295 298 301 302 297 287 273 267 267 262 256 262 268
187 190 191 192 194 195 196 198 199 199 200 203 206 207 209 210 210 210 212 216 220 222 222 223 225 228 228 229 232 235 234 236 240 244 244 242 239 237 234 233 232 234 236 239 240 242 244 247 252 256 258 259 259 258 257 254 252 252 254 257 263 267 272 278 280 282 285 286 286 289 293 294 293 295 300 301 298 293 286 280 273 262 257 262 266
186 187 189 191 194 195 198 199 200 202 205 207 207 208 209 210 209 210 212 215 218 220 222 223 226 229 230 230 232 233 233 234 237 242 244 243 241 238 234 233 233 233 234 237 238 241 242 241 249 258 261 262 262 260 257 255 254 253 252 256 263 268 274 280 282 283 285 287 289 292 294 296 296 296 298 299 297 294 288 282 276 268 263 263 266
190 190 190 191 193 195 197 199 202 204 206 206 205 206 209 209 209 210 212 213 215 218 219 221 224 229 232 232 232 232 234 236 237 240 244 244 243 240 237 236 237 234 232 236 238 239 239 241 251 260 263 263 264 263 259 257 254 252 252 258 266 270 273 275 276 278 281 284 287 290 292 294 297 298 299 303 305 303 296 286 281 277 271 268 270
192 192 191 192 193 195 197 200 203 205 205 205 206 207 209 208 207 208 209 209 212 216 218 219 223 228 231 232 231 231 235 239 241 241 244 245 245 243 241 241 240 236 232 235 238 239 239 243 252 259 261 260 261 261 258 253 249 248 250 255 259 262 269 273 271 271 276 279 281 285 289 293 298 302 307 315 316 309 303 299 293 288 282 277 275
190 190 191 192 194 196 199 203 205 206 206 206 207 209 209 207 206 207 208 208 212 217 221 222 226 229 231 232 232 231 234 238 241 243 244 244 245 245 244 244 242 238 235 236 240 241 240 242 249 256 258 258 256 255 251 245 242 243 242 239 240 246 261 273 272 269 272 277 278 282 290 296 301 307 314 318 314 308 305 306 302 297 293 288 285
190 190 191 194 197 198 200 203 205 206 206 204 205 208 208 205 206 207 208 210 214 219 222 223 224 226 227 228 230 231 231 231 234 241 244 244 244 245 246 245 244 240 236 237 239 241 240 242 246 250 252 250 244 238 233 228 227 228 224 222 225 226 239 264 270 268 268 274 278 284 293 299 303 308 312 313 314 314 315 316 315 313 309 302 299
191 193 194 196 199 199 201 203 204 206 206 205 207 209 209 207 207 207 208 210 215 220 223 223 223 223 224 226 229 229 227 224 226 234 241 243 243 244 244 245 245 242 238 236 236 237 239 241 243 243 241 235 225 216 212 209 208 210 208 210 215 210 213 237 254 259 264 275 282 286 294 301 305 308 314 322 330 333 331 326 323 322 322 319 314
192 196 199 200 201 202 203 204 205 205 207 208 210 212 211 209 209 207 206 208 212 218 222 223 221 220 222 226 228 226 224 223 221 224 232 237 239 240 240 240 240 239 237 235 234 235 235 236 236 232 225 217 208 204 201 196 193 196 197 201 206 203 206 221 234 244 257 268 277 288 299 305 311 319 327 335 341 341 337 331 327 326 328 328 324
187 193 198 201 204 205 206 208 208 207 206 208 211 213 212 211 212 211 208 207 207 211 215 217 216 217 220 223 226 226 225 222 220 221 226 231 234 235 235 235 235 235 235 236 235 232 228 224 219 211 202 194 189 186 184 182 182 184 187 190 193 196 203 213 222 233 248 260 272 292 305 311 322 332 337 337 337 339 341 338 333 332 333 333 331
164 171 181 192 201 205 207 208 209 208 207 206 209 212 213 212 214 217 215 215 214 213 213 215 215 218 221 222 222 221 219 224 232 236 236 236 235 233 232 234 234 234 235 235 232 227 219 211 208 206 201 197 191 182 177 179 179 177 178 179 180 184 193 202 210 221 241 258 270 288 302 312 324 331 333 333 334 342 349 347 342 340 338 337 337
134 143 153 161 178 192 197 200 203 206 207 205 207 212 214 215 216 217 219 223 224 223 223 224 224 222 221 223 226 228 231 236 244 247 246 244 242 237 236 237 236 234 234 229 223 216 208 203 209 212 211 209 203 187 176 175 173 170 172 175 175 175 180 189 198 203 210 221 233 256 282 302 318 326 332 336 338 344 351 350 347 345 343 342 341
118 123 132 139 153 167 178 186 192 197 201 202 204 207 210 216 220 220 221 224 225 226 227 229 230 228 227 228 234 240 242 245 248 250 250 248 244 238 236 235 232 232 231 221 209 200 196 198 203 204 201 200 192 175 165 165 163 160 161 166 167 168 172 174 174 173 171 178 193 224 264 293 321 333 339 340 340 343 347 350 352 352 349 348 347
109 107 110 120 135 148 160 172 181 188 195 199 200 198 196 201 211 218 221 222 222 223 225 228 231 232 233 235 239 242 245 245 245 247 248 245 239 232 228 227 226 226 224 212 197 188 189 192 189 184 181 175 165 160 158 159 159 157 157 157 157 159 159 153 147 150 161 176 184 196 225 272 327 337 341 342 340 341 343 347 353 355 353 355 358
95 96 98 104 114 127 144 160 171 178 183 187 192 193 195 197 197 198 208 215 216 218 221 224 226 229 232 234 237 241 245 246 243 243 241 238 232 224 220 219 219 215 206 196 188 180 177 174 169 165 162 156 154 157 158 157 157 156 154 152 149 148 148 143 142 152 164 164 158 160 174 162 2 357 356 348 340 341 344 347 353 357 358 1 4
83 84 88 92 100 113 130 153 173 180 180 186 194 195 198 204 201 188 184 194 204 211 215 219 221 224 227 229 231 234 238 240 240 239 236 229 222 216 209 202 198 195 193 191 187 178 167 160 158 160 159 155 156 158 157 154 153 149 145 141 139 140 143 145 151 159 157 147 143 144 138 117 81 76 45 11 350 348 352 357 2 8 11 12 10
76 73 77 79 81 98 122 145 169 179 184 194 203 204 206 210 207 197 192 194 195 194 200 209 215 218 221 223 225 227 231 234 235 232 227 218 211 204 191 176 168 172 182 187 181 171 162 156 155 156 157 156 156 155 152 149 147 142 138 135 136 141 146 151 154 150 140 136 139 125 107 101 107 126 117 71 42 26 16 18 19 18 19 19 14
58 60 63 61 58 81 119 145 162 171 182 192 201 208 212 214 209 203 203 204 193 179 185 198 207 212 216 218 219 220 223 227 226 222 215 206 196 186 176 166 161 162 165 167 163 157 154 153 153 154 154 154 152 150 148 146 143 139 137 138 141 145 147 148 143 132 124 128 128 113 106 106 103 103 106 84 58 46 35 32 34 37 34 27 20
37 40 34 19 8 23 148 163 164 167 172 180 192 205 211 213 209 204 201 199 186 176 182 189 192 197 200 204 207 209 210 211 209 201 188 179 175 175 172 168 163 158 155 154 152 149 149 151 154 154 153 150 146 145 146 145 142 137 136 140 143 144 143 142 135 125 124 129 123 114 113 111 106 104 102 82 63 51 42 38 40 48 42 29 21
17 9 354 342 334 313 254 229 198 171 162 163 180 201 206 205 202 197 195 191 179 169 169 170 168 173 180 183 186 187 182 174 167 162 159 159 162 165 165 162 157 150 146 146 148 147 147 149 151 149 146 144 142 143 144 144 141 138 138 140 141 141 139 136 128 121 121 122 118 115 116 112 110 108 93 77 65 52 46 40 32 31 30 22 15
4 348 335 329 324 296 253 226 205 176 158 158 173 192 200 200 195 191 192 189 175 156 151 152 148 153 165 164 160 157 154 147 141 142 147 154 156 156 154 151 146 140 137 138 141 144 143 143 145 143 140 140 141 143 144 143 140 138 138 139 140 140 138 135 129 124 123 120 116 117 119 115 106 95 79 70 63 51 43 37 29 22 17 13 8
353 336 326 322 311 283 250 222 201 182 166 161 163 172 188 198 190 180 178 170 152 137 143 148 141 140 149 149 147 145 138 124 115 111 102 99 113 127 134 137 137 136 135 134 137 140 140 139 139 137 134 134 138 142 144 142 137 135 137 139 140 141 139 138 135 130 127 125 121 118 119 113 99 86 70 55 49 44 32 27 26 19 10 7 4
337 323 315 312 301 279 250 221 201 182 168 160 153 157 176 188 178 165 157 146 135 130 132 126 121 131 146 148 145 141 128 113 110 113 111 106 107 113 122 129 133 134 134 134 136 138 138 137 137 135 134 135 137 139 140 139 135 134 136 137 139 141 142 141 139 134 132 130 126 120 117 107 88 69 53 39 32 22 5 10 14 9 4 6 3
323 308 302 301 293 279 260 229 192 165 148 136 130 137 149 149 146 146 144 138 133 131 123 112 108 118 131 139 138 132 122 114 114 118 120 121 120 118 118 121 124 126 128 131 134 134 133 132 131 130 130 131 133 134 135 136 136 136 137 138 139 141 142 144 145 143 140 136 129 125 122 107 74 47 35 26 11 340 337 350 355 358 5 5 360
314 302 296 291 282 272 257 227 181 149 128 116 115 125 129 126 127 132 134 132 131 127 120 113 112 116 121 128 130 125 117 114 117 119 118 118 120 118 116 117 119 121 122 124 124 125 126 126 125 124 125 127 128 130 131 133 135 137 139 141 142 141 140 143 147 150 152 150 143 137 131 109 62 31 13 4 349 330 334 339 336 338 348 350 350
318 309 301 293 279 263 243 210 152 122 111 106 104 105 110 115 120 124 124 123 123 122 120 120 122 122 123 125 125 122 120 121 123 124 122 120 118 117 117 119 122 125 125 123 119 118 119 120 121 122 123 124 126 130 132 133 136 137 134 135 142 145 143 144 154 163 167 169 167 165 164 155 9 325 318 328 325 315 316 328 337 332 324 325 330
4 34 47 62 74 158 153 134 120 113 108 102 96 93 97 102 107 112 116 116 115 113 115 119 121 122 122 121 117 115 116 119 121 121 120 118 115 115 115 117 120 123 123 123 123 123 122 121 121 120 120 119 121 124 125 126 129 131 129 133 144 154 161 169 178 181 179 179 196 220 231 245 263 271 268 271 288 305 315 324 326 318 308 308 311
67 75 84 93 98 100 107 111 110 105 99 94 91 91 93 94 97 102 107 108 106 104 104 104 101 99 103 107 107 105 107 111 114 116 115 113 112 113 114 115 117 117 117 119 121 122 122 122 121 119 117 116 116 117 116 114 115 117 120 127 140 154 170 183 192 196 199 208 229 251 264 268 267 262 259 261 266 279 294 304 307 311 314 314 309
83 84 88 95 98 100 104 106 105 99 92 89 88 88 89 90 91 93 97 100 100 99 99 99 96 90 87 90 93 96 100 103 107 111 114 114 113 113 114 116 117 117 117 117 118 117 117 117 117 116 114 112 111 110 108 106 105 105 106 113 127 148 171 192 211 224 230 236 243 253 266 273 271 266 267 272 274 274 273 277 283 298 311 309 304
93 96 97 97 97 98 101 103 102 99 95 93 92 90 89 88 87 86 87 91 94 96 96 97 96 94 91 89 87 90 94 97 100 105 111 114 115 115 116 116 115 114 115 115 115 114 114 114 114 113 112 109 106 104 101 99 97 95 92 90 96 117 165 216 238 249 254 256 258 263 268 268 267 266 267 270 274 276 275 274 278 287 298 303 302
94 102 103 98 94 93 95 96 98 99 100 100 99 96 95 94 91 88 87 86 86 87 91 93 93 94 94 95 95 94 94 94 92 94 100 106 111 114 115 114 113 112 111 111 111 111 112 112 112 111 109 106 102 99 95 91 88 85 79 73 67 57 35 280 269 274 276 272 272 279 279 271 266 265 267 267 269 272 272 273 281 290 291 289 289
82 94 99 96 91 90 90 92 95 96 98 100 100 100 101 101 99 99 99 98 93 89 89 92 95 95 94 95 97 99 98 96 92 87 89 96 103 107 109 110 109 109 108 107 107 106 105 105 104 104 103 101 98 94 89 83 78 72 65 58 54 50 42 19 328 308 300 301 335 354 333 306 287 278 274 271 270 270 270 272 281 290 292 290 287
68 79 87 88 88 89 90 91 92 93 94 96 97 97 98 99 100 101 103 104 103 102 99 98 100 100 98 96 96 97 97 98 98 95 92 93 96 101 104 105 105 105 104 104 103 101 99 98 97 95 93 91 89 86 81 75 69 62 53 45 37 31 25 17 4 347 326 314 324 347 347 342 338 331 321 307 293 283 278 277 279 282 285 286 283
Height
780 783 787 791 794 797 800 803 806 809 811 813 815 817 820 821 824 826 828 830 832 834 836 838 840 841 843 845 846 847 848 849 851 852 853 854 855 856 857 858 859 860 861 861 862 863 864 865 866 866 867 867 868 869 869 870 871 871 872 872 872 873 873 874 873 868 865 866 866 865 865 865 864 864 864 863 863 862 861 860 859 859 858 857 856
775 779 783 787 789 793 797 800 803 806 808 811 812 815 817 818 821 823 825 827 829 831 833 834 837 838 840 841 843 844 845 847 849 850 851 852 853 854 855 856 857 857 858 859 860 861 862 862 863 864 864 864 865 866 867 868 869 869 869 870 870 870 870 871 871 868 864 863 864 863 862 862 862 861 861 860 860 859 858 856 856 855 855 854 853
771 775 778 782 785 789 793 796 799 802 805 807 809 811 813 815 818 820 822 825 826 828 830 831 833 835 837 838 839 841 843 844 846 847 848 849 850 851 852 853 854 855 855 856 857 858 859 860 861 861 862 862 862 864 865 866 867 867 867 867 867 868 868 868 868 867 864 861 861 861 860 859 859 858 858 857 857 856 855 853 853 852 851 850 849
767 770 774 778 782 786 789 792 795 798 801 803 805 808 810 812 815 816 819 822 823 824 826 828 830 831 833 835 836 838 840 841 843 844 845 846 847 849 850 850 851 852 852 853 855 856 857 857 858 859 860 860 860 861 862 863 864 864 865 864 864 865 865 865 865 865 863 860 858 858 858 857 856 855 855 854 854 853 851 850 849 848 847 846 845
762 765 770 775 779 782 785 788 791 794 796 799 801 804 807 809 811 813 816 818 820 821 823 825 827 828 830 831 833 834 836 838 840 841 842 843 844 846 847 847 848 849 849 851 852 853 854 855 856 857 857 857 858 858 859 860 861 862 862 862 862 862 862 862 862 862 861 859 855 854 855 854 853 852 852 851 851 849 847 846 844 843 842 841 840
757 761 766 771 775 777 781 784 786 789 792 795 797 800 803 806 807 809 812 814 816 818 819 821 822 824 826 828 829 831 832 834 836 837 839 840 841 843 844 845 845 846 847 848 849 850 851 852 853 854 854 854 855 856 856 857 858 859 859 859 859 859 859 859 859 859 858 856 853 852 851 851 850 849 849 849 847 846 844 841 839 838 837 835 835
753 757 762 766 770 773 776 779 782 785 787 790 794 796 799 801 803 805 808 810 813 814 816 817 818 820 822 824 825 827 829 831 832 834 836 837 838 839 841 842 842 843 844 845 846 847 848 849 850 851 851 851 852 853 854 855 855 856 856 856 856 856 856 856 856 856 855 853 851 850 848 848 848 846 845 845 844 842 840 838 835 833 833 832 830
748 752 757 761 764 767 771 774 778 781 784 786 790 792 795 797 799 802 804 806 808 810 812 813 815 816 818 820 822 824 825 827 828 830 831 833 835 836 837 838 839 840 841 842 843 844 845 846 847 847 848 848 848 850 851 851 852 852 852 852 852 853 853 854 853 852 851 850 848 847 846 845 844 843 842 841 839 837 836 835 832 829 829 828 826
743 748 753 756 759 762 766 770 774 777 780 783 785 788 790 793 795 798 800 802 804 806 808 810 812 813 815 816 818 820 822 823 824 825 827 829 831 832 834 835 836 837 838 839 840 841 842 843 844 844 844 844 845 846 847 848 849 849 849 849 850 850 850 850 850 848 847 846 845 844 843 841 839 839 838 837 835 832 832 833 831 828 827 823 820
739 744 748 751 755 758 762 766 770 773 776 779 781 784 787 789 792 794 796 798 800 803 805 807 808 810 811 813 815 816 817 818 819 820 823 825 827 829 830 831 833 834 835 836 837 837 838 839 840 841 841 841 842 842 843 844 844 845 846 846 847 847 847 847 846 844 843 842 841 840 839 836 834 834 833 832 831 830 830 831 829 827 825 819 814
734 739 743 746 750 755 759 763 766 769 772 775 778 781 783 786 788 790 792 794 797 799 801 803 805 806 808 809 811 812 812 813 814 816 818 821 824 826 827 828 829 831 832 832 833 834 835 836 837 837 838 838 838 838 839 839 840 840 841 841 842 843 843 843 842 841 840 839 837 836 833 829 827 828 830 830 830 828 828 830 829 825 822 818 813
731 735 739 742 747 751 755 759 762 765 768 771 774 777 780 782 784 786 789 791 793 795 797 799 801 802 804 805 806 807 807 808 810 812 814 817 820 822 824 825 826 827 828 829 829 831 832 833 834 834 834 834 835 835 835 835 835 835 836 836 837 837 838 838 838 838 837 835 833 830 827 824 822 824 829 830 829 827 827 828 826 822 819 817 812
727 732 735 739 743 747 752 755 758 762 764 767 771 773 776 779 780 783 785 787 790 792 793 795 797 798 800 801 802 803 803 804 806 808 810 812 815 818 820 822 823 824 824 825 826 827 828 829 830 831 831 831 832 833 832 831 831 831 831 831 831 832 832 832 832 833 832 831 829 825 823 821 820 822 827 829 827 826 824 824 822 818 816 814 809
724 728 732 736 740 744 748 751 754 758 760 764 767 770 772 774 777 779 782 784 786 788 790 792 793 794 796 797 798 799 800 800 802 803 806 808 811 814 816 818 820 820 821 821 822 823 824 825 826 827 828 828 829 829 829 829 828 827 827 827 826 826 826 826 827 828 827 827 825 821 819 819 817 820 826 828 826 825 822 819 818 815 812 811 806
721 726 730 733 737 741 744 748 751 754 757 760 763 766 768 770 773 776 778 780 782 783 785 788 789 790 792 793 794 795 795 797 798 800 802 804 807 810 812 814 816 816 817 817 818 819 821 822 823 823 825 825 826 826 826 826 825 824 824 823 823 822 822 821 821 822 822 822 821 818 815 814 814 818 825 828 826 823 818 814 814 813 809 806 802
719 723 727 730 734 737 740 744 747 750 754 757 759 762 764 766 769 772 774 776 778 780 782 783 785 786 788 789 790 791 791 793 794 796 798 801 804 806 808 810 811 812 812 813 814 815 816 818 819 820 821 822 822 822 822 823 822 822 821 820 820 819 818 818 818 818 818 817 816 813 811 809 812 816 820 823 824 822 815 810 811 811 806 802 799
717 720 723 727 730 733 737 740 743 746 749 752 755 757 760 762 765 768 770 773 775 776 778 779 781 782 783 785 786 786 787 788 790 792 795 798 800 802 804 805 807 807 808 809 810 811 812 813 815 816 817 818 818 818 819 819 820 819 817 816 816 815 814 815 815 814 813 812 810 809 808 808 810 812 814 816 819 819 815 810 808 808 804 800 797
713 716 719 723 727 730 733 736 739 742 745 747 750 753 756 759 761 764 766 769 771 772 774 776 777 778 779 780 781 781 783 784 786 788 791 794 796 798 800 801 802 803 804 805 806 807 807 809 810 812 813 814 814 815 816 817 817 816 814 813 813 811 810 811 812 811 809 807 806 805 806 807 807 806 807 810 811 812 811 807 804 804 803 799 794
709 712 716 720 723 726 730 733 735 738 741 744 747 750 752 755 758 760 763 765 767 769 770 772 772 773 774 775 776 777 779 781 782 784 786 789 791 794 796 797 798 798 799 801 802 802 803 804 806 807 808 809 810 811 812 813 813 813 812 811 809 807 806 808 809 807 805 803 803 804 804 804 803 801 801 803 804 804 803 801 801 801 799 795 792
705 709 713 717 720 724 727 730 732 735 738 741 743 746 749 752 754 757 759 761 763 765 766 767 768 769 770 771 772 773 775 777 778 779 781 784 786 789 791 792 793 794 795 797 798 799 799 800 801 802 803 805 806 808 809 810 810 810 810 809 806 804 804 805 805 803 801 800 801 801 800 799 799 798 798 799 800 799 797 797 797 797 796 793 790
703 707 711 715 718 721 724 727 729 732 734 737 740 743 745 748 751 753 755 757 759 760 762 763 764 765 766 767 768 769 770 772 774 775 777 779 781 784 786 787 788 790 791 793 794 795 796 796 797 798 799 800 802 804 805 806 807 807 807 805 803 802 803 802 800 799 799 797 796 796 796 795 795 795 795 796 797 797 796 795 794 794 793 791 787
701 705 708 712 716 719 722 724 726 729 732 734 737 740 742 744 747 749 751 753 755 756 758 759 761 762 762 763 764 765 766 768 770 771 773 774 777 779 781 782 784 786 788 789 790 791 792 792 793 793 795 797 798 800 802 802 803 803 803 802 802 802 801 799 797 797 797 796 795 794 794 793 792 792 793 793 793 794 794 793 793 792 790 788 785
699 703 707 710 713 716 718 721 723 726 728 731 733 736 738 741 743 745 747 749 751 753 754 756 757 758 759 760 761 761 762 763 765 767 768 770 772 774 775 777 779 782 784 784 785 786 787 788 789 790 792 793 795 796 798 799 799 799 800 800 801 801 799 795 794 795 796 795 794 793 792 792 791 791 791 791 791 791 790 789 789 788 786 784 781
698 701 705 708 710 713 715 717 720 723 725 727 730 732 735 738 740 741 743 745 747 749 750 752 754 754 755 756 757 757 758 759 760 762 763 765 767 769 771 773 775 778 780 780 781 783 784 785 786 787 788 790 791 793 794 795 795 796 797 798 799 800 798 793 791 793 795 795 794 793 792 792 792 791 790 790 789 788 786 785 784 783 782 779 777
696 699 702 705 707 709 712 714 716 719 721 724 726 728 731 734 736 738 739 741 743 745 746 748 749 750 751 751 752 753 754 755 756 757 759 761 763 764 766 768 770 773 775 776 777 779 780 781 782 783 785 787 788 789 790 791 792 793 794 795 796 799 799 794 790 791 793 794 794 794 793 793 792 791 789 788 787 785 783 782 781 780 778 776 774
693 696 699 702 704 707 709 711 713 715 718 720 722 724 727 729 731 733 735 737 739 741 742 743 745 746 746 747 748 749 750 751 752 753 754 756 758 760 762 764 766 768 770 772 773 775 776 778 779 780 782 784 785 786 787 788 789 790 792 793 794 796 797 795 792 792 792 793 793 793 792 792 791 790 787 786 785 783 782 781 779 777 776 774 771
691 693 696 699 702 704 706 708 710 712 715 717 719 721 723 725 727 728 730 732 734 736 738 739 740 741 742 743 744 745 746 747 748 749 751 752 754 755 757 759 762 764 766 768 769 771 773 775 776 778 780 781 783 784 785 786 787 788 790 791 791 793 794 793 792 792 792 792 791 791 791 790 789 787 786 784 784 783 782 780 779 777 775 773 770
689 691 694 696 698 701 703 705 708 710 712 714 716 717 719 721 722 723 724 726 728 730 732 734 735 736 738 739 739 741 742 742 743 745 746 747 748 750 752 754 757 759 761 763 765 768 770 773 775 776 778 779 781 782 783 784 785 786 787 788 789 790 791 792 792 792 792 791 790 789 789 788 787 786 785 784 783 783 782 780 779 778 775 773 771
689 691 693 695 696 698 700 703 705 707 709 710 712 713 714 716 717 719 720 721 723 726 728 729 731 732 734 735 735 736 737 738 738 739 741 742 744 746 748 749 751 753 756 759 761 764 767 771 773 774 776 777 779 780 781 782 783 784 785 785 786 788 789 790 791 791 790 790 789 789 789 788 788 787 786 784 783 783 782 780 779 777 775 773 771
690 692 693 695 695 696 698 700 702 704 705 707 708 709 711 713 714 716 717 718 720 723 724 726 727 729 730 730 731 731 732 733 734 735 737 739 741 742 744 746 748 750 752 755 758 760 763 766 769 770 772 773 775 776 777 778 780 781 782 783 785 786 787 788 788 788 788 788 789 789 789 789 788 787 785 784 783 782 781 780 779 777 775 773 771
691 693 694 695 695 696 698 699 700 701 703 704 705 707 709 711 712 713 715 716 717 719 721 722 724 725 726 727 727 728 729 730 731 733 735 736 737 739 741 743 745 747 749 751 754 756 758 761 763 765 767 769 770 772 773 775 777 778 780 782 783 784 785 785 785 786 787 788 788 789 788 788 787 786 785 784 783 782 781 780 778 777 776 774 771
693 694 694 695 696 697 698 698 699 700 701 702 704 706 708 709 710 711 712 713 715 716 718 719 721 722 723 724 724 725 726 728 729 731 732 733 735 736 738 740 742 744 746 748 751 753 755 757 759 761 763 765 766 768 770 772 774 776 778 780 781 782 783 783 783 785 786 787 787 787 787 786 786 785 784 784 783 782 781 779 777 776 775 773 771
694 695 695 695 696 696 697 698 699 700 701 702 703 705 706 708 708 709 711 712 713 714 715 716 717 718 720 721 722 723 724 726 727 729 730 731 732 734 735 737 739 741 744 746 748 749 751 753 755 757 759 761 763 766 768 771 773 775 777 778 779 780 781 781 782 784 785 785 786 786 785 785 784 784 784 783 783 781 779 778 777 775 773 771 770
695 695 695 696 696 696 697 698 699 699 701 702 703 704 705 706 707 708 709 710 711 712 713 713 715 716 717 718 720 721 723 724 726 727 728 729 730 732 733 736 738 741 743 744 745 746 748 751 753 755 757 760 762 765 767 770 772 774 775 776 777 778 780 781 782 783 784 784 784 784 783 783 783 783 783 782 781 780 778 777 776 774 773 771 770
696 696 696 696 697 697 698 698 699 700 701 702 703 703 704 705 706 706 707 708 709 710 710 711 712 713 715 716 718 720 721 723 724 725 726 728 729 730 733 735 737 740 742 743 744 745 747 750 752 755 757 760 762 765 767 769 771 773 774 775 776 778 779 780 781 782 782 782 782 782 782 782 781 781 781 781 780 778 777 776 775 774 772 771 770
697 696 697 698 698 699 699 699 699 699 700 701 702 703 703 704 705 705 706 706 707 707 708 709 710 712 713 715 716 718 720 722 723 724 725 726 727 729 731 733 736 738 740 742 743 745 747 751 753 756 758 760 762 764 766 768 770 772 773 774 776 777 778 779 779 779 780 780 780 780 780 781 780 780 780 779 778 777 776 776 775 774 772 771 770
697 697 698 699 700 700 699 699 699 698 699 700 701 702 703 704 704 704 705 706 706 707 708 709 710 711 713 714 716 718 719 721 723 724 725 726 728 729 730 732 734 735 737 739 742 744 748 752 755 757 759 761 762 764 766 768 769 771 772 773 774 775 776 777 777 778 778 779 779 779 780 780 780 779 779 778 777 776 776 775 774 773 772 770 770
698 699 700 700 700 700 700 700 699 698 698 699 700 701 702 703 703 704 705 705 706 707 708 709 711 712 713 714 715 716 718 720 722 724 726 727 728 728 730 732 734 735 736 738 741 745 749 753 756 758 760 761 762 764 766 768 769 770 771 772 773 774 775 776 776 777 777 778 778 779 779 779 779 778 778 777 776 776 775 775 773 772 771 770 770
699 700 701 700 700 700 701 700 699 698 698 698 699 700 701 702 703 704 705 706 707 708 709 711 712 713 713 714 715 716 718 721 723 725 728 729 728 728 730 732 736 738 739 740 742 746 750 753 756 758 760 762 763 765 767 768 769 770 771 772 773 774 775 775 776 776 777 777 778 778 778 778 778 777 777 776 776 776 775 774 773 772 771 770 769
700 701 701 701 700 700 700 700 700 698 697 697 698 699 700 702 703 704 705 706 707 709 710 712 713 713 714 715 716 717 720 722 723 726 730 732 732 733 734 736 738 740 741 742 745 749 752 754 757 759 761 763 765 766 767 768 770 770 771 772 773 774 775 775 776 776 777 777 777 777 777 777 777 777 776 776 776 775 775 774 773 772 771 770 769
701 702 702 701 700 700 700 700 699 698 697 697 697 698 700 702 703 704 705 707 708 710 711 712 714 715 716 717 717 718 720 722 723 726 729 732 733 735 737 739 740 741 742 744 748 751 753 756 758 760 761 763 765 766 767 769 769 770 771 772 773 774 775 776 776 776 776 777 777 777 777 777 777 776 776 776 775 775 775 774 772 772 771 770 769
702 702 702 701 701 701 701 700 699 698 697 697 697 699 700 701 703 705 706 707 709 710 712 714 715 717 719 719 718 718 720 724 726 728 730 731 732 733 736 739 741 742 744 747 750 752 754 757 759 760 762 763 765 766 768 769 769 770 771 773 774 775 775 776 776 776 777 777 777 777 777 776 776 776 776 776 775 775 774 773 772 772 771 770 770
702 702 702 701 701 701 701 701 699 698 697 697 698 699 700 702 704 705 707 709 710 712 713 715 716 718 721 722 719 718 721 725 729 731 733 734 734 735 737 739 742 744 747 750 752 754 756 758 759 760 762 763 765 766 768 769 770 771 772 773 774 775 776 776 777 777 777 777 777 776 776 776 776 776 776 775 775 775 774 773 772 771 770 770 769
702 702 702 702 702 702 702 701 700 698 697 698 699 700 701 703 705 706 708 710 712 714 715 716 717 718 721 724 722 719 720 724 729 732 735 737 738 739 738 740 744 747 749 751 753 755 757 759 760 761 762 764 765 767 768 769 770 771 772 774 775 775 776 777 777 777 777 777 777 776 776 776 776 775 775 775 774 774 773 772 771 771 770 769 769
702 702 702 702 704 704 704 703 701 699 698 698 700 701 703 705 707 709 710 712 714 716 718 719 720 720 721 724 724 723 723 725 729 732 735 738 740 741 741 742 746 750 751 753 754 756 757 759 761 762 764 765 767 768 769 770 771 772 772 774 775 775 776 776 776 776 776 776 776 776 776 776 775 775 774 774 774 773 772 771 770 770 769 768 768
701 701 702 703 706 707 706 704 702 699 698 699 701 703 705 707 709 711 712 714 715 717 719 721 723 724 725 725 726 727 728 730 732 734 737 740 743 744 744 745 749 752 754 755 756 757 758 760 762 764 765 767 768 769 770 771 772 772 773 774 774 775 775 776 776 776 776 776 776 776 776 775 775 775 774 773 773 772 771 770 770 769 768 768 767
703 703 703 705 707 709 709 706 703 701 700 701 702 705 707 709 712 714 715 716 718 719 721 723 725 727 729 731 731 732 734 736 737 737 739 742 745 746 747 749 751 753 755 756 758 759 760 762 764 766 767 768 769 770 770 771 772 772 773 773 774 774 775 775 775 775 775 775 775 775 774 774 774 774 773 773 772 771 770 770 769 768 767 767 766
705 704 705 707 709 711 712 709 706 703 702 703 705 707 710 712 714 717 719 720 721 722 724 725 727 729 732 734 736 738 740 742 743 743 744 745 747 748 750 752 753 755 756 758 759 761 762 764 766 767 768 769 769 770 771 771 772 772 773 773 773 774 774 774 774 774 773 773 773 773 773 773 773 773 772 772 771 770 769 769 768 767 766 766 766
709 707 706 708 710 713 715 713 709 706 705 705 707 709 712 715 717 720 722 724 726 727 727 728 730 732 734 737 739 741 743 745 748 751 751 751 750 751 752 754 755 756 758 759 761 763 764 766 767 768 769 769 770 770 771 771 772 772 773 773 773 773 773 773 772 772 772 771 771 771 772 772 771 771 770 770 770 769 768 768 766 766 765 765 765
716 712 709 708 711 715 717 717 714 711 709 709 709 712 715 717 720 723 724 725 727 730 732 733 734 735 737 740 742 743 745 747 751 756 758 757 755 754 755 756 757 758 760 761 763 765 766 767 768 768 769 769 770 770 771 771 772 772 773 773 773 773 772 772 771 771 770 770 770 770 770 770 770 769 769 768 768 767 767 766 765 765 764 764 764
722 718 713 711 713 717 720 721 720 717 715 713 714 716 718 720 723 726 726 726 727 730 734 736 737 737 740 743 745 746 747 748 751 756 761 761 759 758 758 758 759 761 762 763 764 766 767 767 768 769 770 770 771 771 772 772 772 773 773 773 773 772 771 771 770 770 769 769 769 769 769 768 768 767 767 766 766 766 765 764 763 763 763 762 762